sat.trackr.live / text

‹ back to catalog

STARLINK-37731

NORAD 69304 · 2026-119J

PAYLOAD ACTIVE UNKNOWN

§ Identity

Operator
Country
US
Launch date
2026-05-30
Launch site
AFWTR
Launch vehicle
Mass (kg)
RCS (m²)

Purposes: comms

External: N2YO · Heavens-Above · Gunter

§ Orbital elements

Epoch: 2026-09-20T01:14:53.702016Z

Period
93.91 min
Inclination
97.2849°
Eccentricity
0.0000681
Mean motion
15.33450035 rev/d
Perigee alt
465.1 km
Apogee alt
466.0 km
Semi-major
6,843.7 km
B*
2.9839e-4
RAAN
287.7764°
Arg perigee
115.7950°
Mean anomaly
244.3363°
Rev number
1,859

§ Raw data

STARLINK-377311 69304U 26119J   26263.05201044  .00009572  00000+0  29839-3 0  99922 69304  97.2849 287.7764 0000681 115.7950 244.3363 15.33450035 18594

JSON: /api/v1/satellites/69304 · /tle

For live sub-satellite position, see the globe view (requires WebGL).

§ Visibility from observer

Set your observer location to see the next 7 days of passes ≥ 10°. The values pass through the URL so the page stays shareable.

No JS? Fill the form by hand. The geolocation button needs JavaScript.